User: anonymous   Login
Location: Unspecified
(0.0000°N, 0.0000°E)
Time: 22:30:42
(UTC+00:00)
Language:

USA 224 - Orbit

View from above orbital plane
View from above orbital plane
View from above satellite
View from above satellite

Ground track
Ground track

The orbit data is extracted from the following two-line orbital elements,

1 37348U 11002A   18140.97772766 0.00010500  00000-0  10156-3 0    09
2 37348  97.8839 252.6976 0532604 200.0150 159.9849 14.77820378    08
Epoch (UTC): 20 May 2018 23:27:55
Eccentricity: 0.0532604
inclination: 97.8839°
perigee height: 262 km
apogee height: 1010 km
right ascension of ascending node: 252.6976°
argument of perigee: 200.0150°
revolutions per day: 14.77820378
mean anomaly at epoch: 159.9849°
orbit number at epoch: 0

The dashed part of the orbit path shows where the satellite is in the earth's shadow,  

DLR